{"data":{"norad_id":87624,"intl_designator":"","name":"UNKNOWN","alt_names":[],"object_type":"UNKNOWN","status":"UNKNOWN","operator":null,"country":null,"launch_date":null,"launch_site_code":null,"launch_vehicle":null,"mission":null,"orbit_class":"UNKNOWN","rcs_meters":null,"size_class":null,"mass_kg":null,"dimensions":null,"purposes":[],"wikipedia_slug":null,"has_3d_model":false,"image_url":null,"decayed_at":null,"tle_current":{"epoch":"2026-05-23T14:22:03.785088Z","epoch_age_seconds":196441,"freshness":"STALE","line1":"1 87624U          26143.59865492  .00003304  00000+0  49900-3 0  9995","line2":"2 87624  98.6967  96.7765 0096320 101.2776 259.9272 14.71946516604075","mean_motion":14.71946516,"eccentricity":0.009632,"inclination_deg":98.6967,"raan_deg":96.7765,"arg_perigee_deg":101.2776,"mean_anomaly_deg":259.9272,"bstar":0.000499,"rev_number":60407,"period_min":97.829641522111,"perigee_km":587.11906876689,"apogee_km":722.60274040079,"semimajor_km":7032.9979045838,"source":"CELESTRAK","updated_at":"2026-05-25T13:38:11.675079Z"}}}